This demonstration page uses our WeatherBlox Daily Observations layout. Learn more.

Left ArrowRight Arrow

34.02893, -84.19858

Hourly Observations for October 9, 2015

Temp ( °F °C ) Dew Point ( °F °C ) Humidity (%) Winds ( mph kmh ) Pressure ( in mb ) Visibility ( mi km ) Precip ( " mm )
12:53 am 00:53 Clear 62 16.7 61 16.1 96 96 Calm 30.10 1019 10 16 0.00 0.00
1:53 am 01:53 Clear 61 16.1 61 16.1 100 100 Calm 30.09 1019 10 16 0.00 0.00
2:53 am 02:53 Clear 61 16.1 60 15.6 97 97 Calm 30.08 1019 10 16 0.00 0.00
3:53 am 03:53 Clear 60 15.6 60 15.6 100 100 Calm 30.09 1019 8 13 0.00 0.00
4:53 am 04:53 Clear 60 15.6 60 15.6 100 100 Calm 30.08 1019 10 16 0.00 0.00
5:53 am 05:53 Clear 60 15.6 60 15.6 100 100 N 3 6 30.09 1019 10 16 0.00 0.00
6:53 am 06:53 Clear 60 15.6 60 15.6 100 100 Calm 30.11 1020 10 16 0.00 0.00
7:53 am 07:53 Sunny 60 15.6 60 15.6 100 100 Calm 30.12 1020 10 16 0.00 0.00
8:53 am 08:53 Sunny 64 17.8 63 17.2 96 96 Calm 30.13 1020 9 14 0.00 0.00
9:53 am 09:53 Mostly Cloudy 67 19.4 64 17.8 91 91 Calm 30.15 1021 10 16 0.00 0.00
10:53 am 10:53 Mostly Cloudy 70 21.1 65 18.3 84 84 SSW 3 6 30.14 1021 10 16 0.00 0.00
11:53 am 11:53 Cloudy 73 22.8 63 17.2 71 71 W 8 13 30.14 1021 10 16 0.00 0.00
12:53 pm 12:53 Partly Cloudy 77 25 64 17.8 64 64 WNW 7 11 30.11 1020 10 16 0.00 0.00
1:53 pm 13:53 Mostly Cloudy 78 25.6 63 17.2 60 60 WNW 9 15 30.08 1019 10 16 0.00 0.00
2:53 pm 14:53 Cloudy 76 24.4 62 16.7 62 62 WNW 6 9 30.05 1018 10 16 0.00 0.00
3:53 pm 15:53 Mostly Cloudy 76 24.4 63 17.2 64 64 W 5 7 30.04 1017 10 16 0.00 0.00
4:53 pm 16:53 Partly Cloudy 77 25 64 17.8 64 64 WSW 6 9 30.02 1017 10 16 0.00 0.00
5:53 pm 17:53 Sunny 76 24.4 63 17.2 64 64 WNW 5 7 30.01 1016 10 16 0.00 0.00
6:53 pm 18:53 Sunny 74 23.3 64 17.8 71 71 SW 5 7 30.00 1016 10 16 0.00 0.00
7:53 pm 19:53 Clear 69 20.6 65 18.3 87 87 S 3 6 30.00 1016 10 16 0.00 0.00
8:53 pm 20:53 Clear 67 19.4 65 18.3 93 93 Calm 30.01 1016 10 16 0.00 0.00
9:53 pm 21:53 Clear 66 18.9 65 18.3 96 96 Calm 30.01 1016 10 16 0.00 0.00
10:53 pm 22:53 Mostly Cloudy 66 18.9 66 18.9 100 100 Calm 30.01 1016 10 16 0.00 0.00
11:53 pm 23:53 Cloudy 67 19.4 66 18.9 97 97 Calm 30.00 1016 10 16 0.00 0.00

Powered by AerisWeather